Aurora, IL

4:21 PM CST on November 11, 2019 (GMT -0600)
Aurora Municipal

Weather History for KARR - October, 2019

Change the Weather History Date:

Tuesday, October 22, 2019

  Actual Average Record
Temperature  
Mean Temperature 46 °F 49 °F  
Max Temperature 51 °F 60 °F 68 °F (2000)
Min Temperature 41 °F 37 °F 23 °F (2013)
Degree Days  
Heating Degree Days 19 16  
Month to date heating degree days 275 291  
Since 1 July heating degree days 307 444  
Cooling Degree Days 0 0  
Month to date cooling degree days 13 9  
Year to date cooling degree days 776 656  
Moisture  
Dew Point 38 °F    
Average Humidity 65    
Maximum Humidity 77    
Minimum Humidity 53    
Precipitation  
Precipitation 0.03 in 0.10 in 1.21 in (2009)
Month to date precipitation 2.33 2.24  
Year to date precipitation 39.58 30.88  
Sea Level Pressure  
Sea Level Pressure 29.64 in    
Wind  
Wind Speed 17 mph (SW)    
Max Wind Speed 30 mph    
Max Gust Speed 42 mph    
Visibility 10 miles    
Events Rain    
T = Trace of Precipitation, MM = Missing Value Source: NWS Daily Summary

Daily Weather History Graph

Daily Weather History Graph

Search for Another Location

Airport or City:

Astronomy

Oct. 22, 2019 Rise Set
Actual Time 7:13 AM CDT 6:02 PM CDT
Civil Twilight 6:45 AM CDT 6:30 PM CDT
Nautical Twilight 6:13 AM CDT 7:02 PM CDT
Astronomical Twilight 5:40 AM CDT 7:35 PM CDT
Moon 12:16 AM CDT (10/22) 3:18 PM CDT (10/22)
Length of Visible Light 11h 44m
Length of Day
10h 48m
Last Quarter, 37% of the Moon is Illuminated
Oct 22
Last Quarter
Oct 27
New
Nov 4
First Quarter
Nov 12
Full
Nov 19
Last Quarter

Hourly Weather History & Observations

Time (CDT) Temp. Windchill Dew Point Humidity Pressure Visibility Wind Dir Wind Speed Gust Speed Precip Events Conditions
12:52 AM 50.0 °F - 39.0 °F 66% 29.51 in 10.0 mi South 17.3 mph 27.6 mph N/A   Scattered Clouds
1:52 AM 50.0 °F - 39.0 °F 66% 29.50 in 10.0 mi South 19.6 mph 29.9 mph N/A   Mostly Cloudy
2:52 AM 50.0 °F - 39.9 °F 68% 29.50 in 10.0 mi SSW 15.0 mph 28.8 mph N/A   Overcast
3:52 AM 50.0 °F - 39.9 °F 68% 29.49 in 9.0 mi SW 24.2 mph 38.0 mph 0.00 in Rain Light Rain
4:52 AM 46.9 °F - 41.0 °F 80% 29.50 in 10.0 mi SW 18.4 mph 31.1 mph 0.01 in   Partly Cloudy
5:52 AM 48.0 °F - 41.0 °F 77% 29.51 in 10.0 mi SW 21.9 mph 36.8 mph N/A   Overcast
6:52 AM 48.0 °F - 41.0 °F 77% 29.52 in 10.0 mi SW 24.2 mph 40.3 mph 0.00 in   Overcast
7:27 AM 46.9 °F - 41.0 °F 80% 29.52 in 7.0 mi SW 23.0 mph 40.3 mph 0.01 in Rain Light Rain
7:52 AM 46.9 °F - 41.0 °F 80% 29.54 in 9.0 mi SW 17.3 mph 33.4 mph 0.01 in Rain Light Rain
8:52 AM 46.0 °F 39.0 °F 41.0 °F 83% 29.57 in 9.0 mi SW 17.3 mph 31.1 mph 0.01 in Rain Light Rain
9:52 AM 46.9 °F - 42.1 °F 83% 29.59 in 10.0 mi SW 17.3 mph 32.2 mph 0.00 in   Overcast
10:52 AM 46.0 °F 38.8 °F 41.0 °F 83% 29.62 in 6.0 mi WSW 18.4 mph 29.9 mph 0.00 in Rain Light Rain
11:52 AM 46.9 °F - 41.0 °F 80% 29.64 in 10.0 mi WSW 26.5 mph 40.3 mph 0.00 in Rain Light Rain
12:52 PM 46.9 °F - 37.9 °F 71% 29.65 in 10.0 mi WSW 24.2 mph 41.4 mph 0.00 in   Overcast
1:52 PM 48.0 °F - 37.0 °F 66% 29.67 in 10.0 mi WSW 18.4 mph 35.7 mph N/A   Overcast
2:52 PM 50.0 °F - 37.0 °F 61% 29.67 in 10.0 mi SW 23.0 mph 33.4 mph N/A   Overcast
3:52 PM 50.0 °F - 36.0 °F 59% 29.69 in 10.0 mi WSW 24.2 mph 34.5 mph N/A   Overcast
4:52 PM 50.0 °F - 37.0 °F 61% 29.72 in 10.0 mi WSW 15.0 mph 24.2 mph N/A   Mostly Cloudy
5:52 PM 48.9 °F - 36.0 °F 61% 29.74 in 10.0 mi WSW 13.8 mph 24.2 mph N/A   Mostly Cloudy
6:52 PM 48.9 °F - 37.0 °F 64% 29.77 in 10.0 mi WSW 16.1 mph - N/A   Overcast
7:52 PM 48.9 °F - 37.0 °F 64% 29.79 in 10.0 mi WSW 11.5 mph - N/A   Overcast
8:52 PM 48.9 °F - 35.1 °F 59% 29.80 in 10.0 mi WSW 12.7 mph 25.3 mph N/A   Overcast
9:52 PM 46.0 °F 40.6 °F 30.9 °F 56% 29.81 in 10.0 mi SW 11.5 mph - N/A   Clear
10:52 PM 43.0 °F 36.8 °F 30.9 °F 62% 29.83 in 10.0 mi SW 11.5 mph - N/A   Clear
11:52 PM 43.0 °F 37.2 °F 30.9 °F 62% 29.83 in 10.0 mi SW 10.4 mph - 0.00 in   Clear